Showing default

KINEIS-2B, 62934

Orbit data source: Space-Track

KINEIS-2B, 62934 is a French payload satellite in SSO that was launched on Sat, 08 Feb 2025 UTC via an ELECTRON launch vehicle from the Rocket Lab Launch Complex (RLLC). Payload-class satellites include a variety of spacecraft equipped with specific instruments for various scientific and technological missions. These include communications satellites like Starlink; space stations such as the ISS; scientific satellites like the Hubble; Earth observation satellites from companies like Planet Labs, Umbra, and HawkEye 360; GPS; miniature CubeSats for education and research; and military/defense satellites.

Loading next visibility...
Identifier
62934, 2025-028G
Orbit
SSO
Country
Flag of FRFR
Related business
Manufacturer
KINEIS
Mission
Operational Commercial Communications
Bus & Motor
CUBESAT 16U, Unknown motor
Mass
28 kg wet, 28 kg dry
Launch date (UTC)
2025-02-08 (9 months ago)
Launch vehicle
ELECTRON
Launch site
Rocket Lab Launch Complex (RLLC)
Object type
Payload
Rocket body
Debris
Shape & HBR
Box + 2 Pan + 1 Ant, 1.0 m
Radar Cross Section
0.229 m², Medium (>0.1 m² and < 1m²)

Expand to show TLE details & history
Last TLE update: 13 hours ago

TLE from 13 hours ago
0 KINEIS-2B
1 62934U 25028G   25311.15412500  .00002179  00000-0  35002-3 0  9993
2 62934  97.9983   2.7813 0004646 131.7592 228.4014 14.72615913 39978
Epoch: 2025-11-07T03:41Z
TLE epoch observation values (Epoch: 2025-11-07T03:41:56.399Z)
Latitude
0.00001°
Longitude
-99.30586°
Altitude
657.908 km
Speed
7.527 km/s
True Right ascension
00h 11m 07s
True Declination
0° 00' 00"
Sunlit
Object was in full shadow at epoch
Visualization orbit readout
Latitude
Unknown
Longitude
Unknown
Altitude
Unknown
Speed
Unknown
Apparent Right ascension
Unknown
Apparent Declination
Unknown
Sunlit
N/A
Visualization observer readout
Local Sidereal Time
12:29:52
Azimuth
Unknown
Elevation
Unknown
Doppler factor
Unknown
Orbital elements
Apogee altitude
653.05 km
Perigee altitude
646.519 km
Semi-major axis
7,027.922 km
Eccentricity
0.00046
Inclination
97.9983°
RAAN
2.7813°
Arg. of periapsis
131.7592°
True anomaly
228.3616°
Mean anomaly
228.4014°
Eccentric anomaly
228.3815°
Mean motion
3.68386 °/min
Orbital period
97.72 mins
BSTAR
0.00035002
Loading maneuver chart data...
Computing Atmospheric mass density...
Loading historical data...
Loading historical data...
Loading historical data...
Loading historical data...
Loading historical data...
Loading historical data...
Loading historical data...

Documentation

Showing up to 5 results
|